Weather History for Fremont, MI

Change the Weather History Date:

Saturday, May 11, 2013

  Actual Average (KMKG) Record (KMKG)
Temperature  
Mean Temperature 42 °F 55 °F  
Max Temperature 49 °F 65 °F 87 °F (1930)
Min Temperature 36 °F 45 °F 30 °F (1949)
Degree Days  
Heating Degree Days 22 10  
Month to date heating degree days 127  
Since 1 July heating degree days 6345  
Cooling Degree Days 0 1  
Month to date cooling degree days 3  
Year to date cooling degree days 7  
Moisture  
Dew Point 40 °F    
Average Humidity 90    
Maximum Humidity 99    
Minimum Humidity 61    
Precipitation  
Precipitation 0.00 in 0.11 in 2.07 in (2006)
Month to date precipitation 1.13  
Year to date precipitation 10.15  
Snow  
Snow 0.00 in 0.00 in T in (1949)
Month to date snowfall 0.0  
Since 1 July snowfall 93.7  
Snow Depth -    
Sea Level Pressure  
Sea Level Pressure 29.86 in    
Wind  
Wind Speed 7 mph (WSW)    
Max Wind Speed 25 mph    
Max Gust Speed 34 mph    
Visibility 9 miles    
Events Fog , Rain    
T = Trace of Precipitation, MM = Missing Value Source: NWS Daily Summary

Daily Weather History Graph

Daily Weather History Graph

Search for Another Location

Airport:

Trip Planner

Search our weather history database for the weather conditions in past years. The results will help you decide how hot, cold, wet, or windy it might be!

Date:

Astronomy

May. 11, 2013 Rise Set
Actual Time 6:23 AM EDT 8:57 PM EDT
Civil Twilight 5:51 AM EDT 9:30 PM EDT
Nautical Twilight 5:10 AM EDT 10:11 PM EDT
Astronomical Twilight 4:24 AM EDT 10:57 PM EDT
Moon 7:30 AM EDT (5/11) 10:38 PM EDT (5/11)
Length of Visible Light 15h 39m
Length of Day
14h 34m
Waxing Crescent, 3% of the Moon is Illuminated
May 11
Waxing Crescent
May 18
First Quarter
May 25
Full
May 31
Last Quarter
Jun 8
New

Hourly Weather History & Observations

Time (EDT) Temp. Windchill Dew Point Humidity Pressure Visibility Wind Dir Wind Speed Gust Speed Precip Events Conditions
12:15 AM 45.5 °F 42.5 °F 43.3 °F 92% 29.92 in 10.0 mi NW 5.8 mph - N/A   Overcast
12:34 AM 45.0 °F 41.8 °F 43.2 °F 93% 29.92 in 10.0 mi NNW 5.8 mph - N/A   Overcast
12:55 AM 44.4 °F 42.9 °F 42.8 °F 94% 29.92 in 10.0 mi NNW 3.5 mph - N/A   Overcast
1:15 AM 44.6 °F - 42.8 °F 93% 29.91 in 10.0 mi Calm Calm - N/A   Overcast
1:35 AM 43.9 °F 41.3 °F 42.6 °F 95% 29.90 in 10.0 mi North 4.6 mph - N/A   Overcast
1:55 AM 43.7 °F 42.1 °F 42.4 °F 95% 29.90 in 10.0 mi NNW 3.5 mph - N/A   Overcast
2:15 AM 43.3 °F - 42.3 °F 96% 29.89 in 10.0 mi Calm Calm - N/A   Overcast
2:34 AM 43.2 °F - 42.3 °F 97% 29.89 in 10.0 mi Calm Calm - N/A   Overcast
2:54 AM 43.0 °F - 41.9 °F 96% 29.89 in 10.0 mi Calm Calm - N/A   Overcast
3:14 AM 43.7 °F 40.3 °F 42.6 °F 96% 29.89 in 10.0 mi West 5.8 mph - N/A   Overcast
3:35 AM 43.0 °F - 42.1 °F 97% 29.89 in 10.0 mi Calm Calm - N/A   Overcast
3:55 AM 43.5 °F 41.9 °F 42.4 °F 96% 29.90 in 10.0 mi West 3.5 mph - N/A   Overcast
4:14 AM 43.7 °F 41.1 °F 42.6 °F 96% 29.89 in 10.0 mi WSW 4.6 mph - N/A   Overcast
4:35 AM 43.5 °F - 42.1 °F 95% 29.88 in 10.0 mi Calm Calm - N/A   Overcast
4:55 AM 43.2 °F - 42.3 °F 97% 29.88 in 10.0 mi Calm Calm - N/A   Overcast
5:15 AM 43.5 °F 41.9 °F 42.6 °F 97% 29.88 in 10.0 mi West 3.5 mph - N/A   Overcast
5:35 AM 42.8 °F 41.1 °F 41.9 °F 97% 29.88 in 10.0 mi SSW 3.5 mph - N/A   Overcast
5:54 AM 43.0 °F 40.3 °F 42.3 °F 97% 29.88 in 7.0 mi SW 4.6 mph - N/A   Overcast
6:15 AM 42.8 °F 41.1 °F 42.1 °F 97% 29.88 in 10.0 mi SW 3.5 mph - N/A   Overcast
6:35 AM 42.8 °F 39.3 °F 42.3 °F 98% 29.87 in 7.0 mi South 5.8 mph - N/A   Overcast
6:55 AM 42.4 °F 39.6 °F 41.9 °F 98% 29.87 in 4.0 mi South 4.6 mph - N/A   Overcast
7:15 AM 42.6 °F 38.4 °F 41.9 °F 97% 29.87 in 5.0 mi SSW 6.9 mph - N/A   Overcast
7:35 AM 42.8 °F 38.6 °F 42.6 °F 99% 29.87 in 3.0 mi SSW 6.9 mph - N/A   Overcast
7:55 AM 42.6 °F 37.8 °F 42.1 °F 98% 29.87 in 1.2 mi SSW 8.1 mph - N/A   Overcast
8:15 AM 41.9 °F 36.9 °F 41.5 °F 99% 29.87 in 0.5 mi SSW 8.1 mph - N/A Fog Fog
8:34 AM 41.9 °F 36.3 °F 41.5 °F 99% 29.86 in 0.5 mi SSW 9.2 mph - N/A Fog Fog
8:55 AM 42.1 °F 36.1 °F 41.9 °F 99% 29.85 in 4.0 mi SSW 10.4 mph - N/A   Overcast
9:15 AM 42.4 °F 36.1 °F 42.1 °F 99% 29.84 in 5.0 mi South 11.5 mph - N/A   Overcast
9:34 AM 43.0 °F 37.2 °F 42.3 °F 97% 29.83 in 10.0 mi South 10.4 mph - N/A   Overcast
9:55 AM 43.7 °F 39.1 °F 42.4 °F 95% 29.82 in 10.0 mi SSE 8.1 mph - N/A   Overcast
10:15 AM 45.1 °F 39.5 °F 43.5 °F 94% 29.82 in 10.0 mi South 11.5 mph - N/A   Overcast
10:35 AM 46.0 °F 41.0 °F 43.9 °F 92% 29.80 in 10.0 mi South 10.4 mph - N/A   Overcast
10:55 AM 45.7 °F 40.2 °F 43.2 °F 91% 29.80 in 10.0 mi South 11.5 mph - N/A   Overcast
11:14 AM 46.4 °F 41.5 °F 43.9 °F 91% 29.79 in 10.0 mi South 10.4 mph - N/A   Overcast
11:35 AM 47.3 °F - 44.4 °F 90% 29.78 in 10.0 mi South 12.7 mph 17.3 mph N/A   Overcast
11:55 AM 49.1 °F - 45.5 °F 87% 29.77 in 10.0 mi South 13.8 mph 19.6 mph N/A   Overcast
12:14 PM 49.1 °F - 45.0 °F 86% 29.76 in 10.0 mi South 15.0 mph 19.6 mph N/A   Overcast
12:35 PM 48.2 °F - 45.0 °F 89% 29.75 in 10.0 mi South 13.8 mph 18.4 mph N/A   Overcast
12:54 PM 49.1 °F - 45.3 °F 87% 29.76 in 10.0 mi SSW 11.5 mph - N/A   Overcast
1:15 PM 48.7 °F - 45.9 °F 90% 29.75 in 7.0 mi SSW 13.8 mph - N/A Rain Rain
1:34 PM 48.2 °F - 46.4 °F 93% 29.74 in 5.0 mi SSW 16.1 mph 21.9 mph N/A   Light Drizzle
1:55 PM 47.7 °F - 46.4 °F 95% 29.73 in 2.5 mi South 13.8 mph 19.6 mph N/A   Overcast
2:15 PM 47.3 °F - 46.4 °F 97% 29.73 in 3.0 mi SSW 17.3 mph 25.3 mph N/A Rain Rain
2:35 PM 46.2 °F 41.7 °F 44.8 °F 95% 29.74 in 4.0 mi SW 9.2 mph 19.6 mph N/A Rain Light Rain
2:55 PM 42.4 °F 33.8 °F 40.1 °F 91% 29.76 in 10.0 mi WNW 19.6 mph 34.5 mph N/A   Overcast
3:14 PM 40.1 °F 30.2 °F 38.3 °F 93% 29.78 in 4.0 mi NW 21.9 mph 31.1 mph N/A Rain Rain
3:35 PM 39.2 °F 28.3 °F 37.8 °F 95% 29.81 in 10.0 mi WNW 25.3 mph 29.9 mph N/A Rain Light Rain
3:55 PM 38.3 °F 27.6 °F 36.5 °F 93% 29.83 in 10.0 mi WNW 23.0 mph 31.1 mph N/A   Light Drizzle
4:15 PM 38.7 °F 28.6 °F 36.5 °F 92% 29.85 in 10.0 mi NW 20.7 mph 26.5 mph N/A   Overcast
4:35 PM 40.6 °F 33.4 °F 37.4 °F 88% 29.86 in 10.0 mi NW 12.7 mph 25.3 mph N/A   Overcast
4:54 PM 42.6 °F 34.6 °F 36.9 °F 80% 29.86 in 10.0 mi NW 17.3 mph 24.2 mph N/A   Mostly Cloudy
5:15 PM 42.8 °F 34.3 °F 36.5 °F 78% 29.86 in 10.0 mi NW 19.6 mph 24.2 mph N/A   Overcast
5:34 PM 43.2 °F 36.2 °F 35.6 °F 75% 29.87 in 10.0 mi NW 13.8 mph - N/A   Overcast
5:55 PM 44.4 °F 38.6 °F 36.3 °F 73% 29.87 in 10.0 mi NNW 11.5 mph 18.4 mph N/A   Overcast
6:14 PM 44.8 °F 39.4 °F 35.6 °F 70% 29.88 in 10.0 mi NW 10.4 mph 17.3 mph N/A   Overcast
6:35 PM 45.5 °F 39.6 °F 34.5 °F 65% 29.88 in 10.0 mi NW 12.7 mph 16.1 mph N/A   Mostly Cloudy
6:54 PM 45.9 °F 40.8 °F 34.5 °F 65% 29.88 in 10.0 mi West 10.4 mph - N/A   Scattered Clouds
7:15 PM 45.5 °F 40.3 °F 32.5 °F 61% 29.88 in 10.0 mi WNW 10.4 mph 16.1 mph N/A   Scattered Clouds
7:35 PM 44.8 °F 39.9 °F 33.3 °F 64% 29.88 in 10.0 mi West 9.2 mph - N/A   Mostly Cloudy
7:55 PM 44.2 °F 40.3 °F 32.5 °F 63% 29.89 in 10.0 mi West 6.9 mph - N/A   Overcast
8:15 PM 40.6 °F 30.9 °F 36.0 °F 83% 29.91 in 10.0 mi WSW 21.9 mph 29.9 mph N/A   Light Drizzle
8:35 PM 39.2 °F 32.5 °F 36.1 °F 89% 29.91 in 10.0 mi WSW 10.4 mph 18.4 mph N/A   Light Drizzle
8:55 PM 38.7 °F 32.4 °F 36.0 °F 90% 29.91 in 10.0 mi WSW 9.2 mph - N/A   Scattered Clouds
9:14 PM 38.5 °F 32.1 °F 36.0 °F 91% 29.91 in 10.0 mi WSW 9.2 mph - N/A   Mostly Cloudy
9:35 PM 37.4 °F 32.8 °F 35.6 °F 93% 29.91 in 10.0 mi West 5.8 mph - N/A   Scattered Clouds
10:14 PM 37.2 °F 32.6 °F 35.1 °F 92% 29.91 in 10.0 mi SW 5.8 mph - N/A   Mostly Cloudy
10:35 PM 36.5 °F 31.8 °F 34.7 °F 93% 29.92 in 10.0 mi SW 5.8 mph - N/A   Scattered Clouds
10:54 PM 36.5 °F 31.0 °F 34.9 °F 94% 29.91 in 10.0 mi SW 6.9 mph - N/A   Mostly Cloudy
11:15 PM 36.9 °F 33.1 °F 35.1 °F 93% 29.90 in 10.0 mi SW 4.6 mph - N/A   Overcast
11:35 PM 38.3 °F 30.5 °F 34.2 °F 85% 29.91 in 10.0 mi WSW 12.7 mph 18.4 mph N/A   Overcast
11:55 PM 38.3 °F 31.9 °F 32.2 °F 79% 29.91 in 10.0 mi WSW 9.2 mph - N/A   Scattered Clouds